Location: Sunny Point
(33.0946°N, 85.0574°W)
Time: 07:37:00
(UTC+00:00)

QB50P2 - Visible Passes

Search period start: 22 July 2024 00:00
Search period end: 01 August 2024 00:00
Orbit: 561 x 578 km, 98.0° (Epoch: 21 July)

Date Brightness Start Highest point End Pass type
(mag) Time Alt. Az. Time Alt. Az. Time Alt. Az.
22 Jul ? 07:53:09 10° NNE 07:56:13 31° E 07:56:13 31° E visible
22 Jul ? 09:29:14 10° NNW 09:31:35 15° WNW 09:32:20 14° W visible
23 Jul ? 07:54:52 10° NNE 07:57:57 32° ENE 07:57:57 32° ENE visible
23 Jul ? 09:31:06 10° NW 09:33:20 14° WNW 09:34:04 14° W visible
24 Jul ? 07:56:34 10° NNE 07:59:40 33° ENE 07:59:40 33° ENE visible
24 Jul ? 09:32:56 10° NW 09:35:03 14° WNW 09:35:47 13° W visible
25 Jul ? 07:58:16 10° NNE 08:01:22 34° ENE 08:01:22 34° ENE visible
25 Jul ? 09:34:47 10° NW 09:36:46 13° WNW 09:37:28 13° W visible
26 Jul ? 07:59:56 10° NNE 08:03:02 36° ENE 08:03:02 36° ENE visible
26 Jul ? 09:36:37 10° NW 09:38:26 13° WNW 09:39:09 12° WNW visible
27 Jul ? 08:01:35 10° NNE 08:04:41 37° ENE 08:04:41 37° ENE visible
27 Jul ? 09:38:26 10° NW 09:40:06 12° WNW 09:40:47 12° WNW visible
28 Jul ? 08:03:13 10° NNE 08:06:18 38° ENE 08:06:18 38° ENE visible
28 Jul ? 09:40:15 10° NW 09:41:45 12° WNW 09:42:24 11° WNW visible
29 Jul ? 08:04:49 10° NNE 08:07:54 39° ENE 08:07:54 39° ENE visible
29 Jul ? 09:42:05 10° NW 09:43:21 11° WNW 09:44:01 11° WNW visible
30 Jul ? 08:06:25 10° NNE 08:09:29 40° ENE 08:09:29 40° ENE visible
30 Jul ? 09:43:56 10° NW 09:44:57 11° WNW 09:45:35 10° WNW visible
31 Jul ? 08:07:59 10° NNE 08:11:02 41° ENE 08:11:02 41° ENE visible
31 Jul ? 09:45:50 10° WNW 09:46:32 10° WNW 09:47:08 10° WNW visible
